TimeMDT,TemperatureF,Dew PointF,Humidity,Sea Level PressureIn,VisibilityMPH,Wind Direction,Wind SpeedMPH,Gust SpeedMPH,PrecipitationIn,Events,Conditions,WindDirDegrees,DateUTC
12:51 AM,88.0,43.0,21,29.76,10.0,NW,9.2,-,N/A,,Mostly Cloudy,320,2013-06-16 06:51:00
1:51 AM,86.0,43.0,22,29.75,10.0,NW,3.5,-,N/A,,Mostly Cloudy,310,2013-06-16 07:51:00
2:51 AM,80.1,51.1,36,29.76,10.0,North,16.1,-,N/A,,Scattered Clouds,360,2013-06-16 08:51:00
3:51 AM,80.1,51.1,36,29.76,10.0,NNW,8.1,-,N/A,,Mostly Cloudy,340,2013-06-16 09:51:00
4:51 AM,79.0,50.0,36,29.76,10.0,NNE,17.3,-,N/A,,Mostly Cloudy,20,2013-06-16 10:51:00
5:51 AM,77.0,50.0,39,29.80,10.0,North,15.0,-,N/A,,Scattered Clouds,360,2013-06-16 11:51:00
6:51 AM,75.9,51.1,42,29.82,10.0,North,6.9,-,N/A,,Mostly Cloudy,360,2013-06-16 12:51:00
7:51 AM,79.0,50.0,36,29.83,10.0,North,9.2,-,N/A,,Mostly Cloudy,360,2013-06-16 13:51:00
8:51 AM,84.0,46.9,27,29.83,10.0,North,11.5,-,N/A,,Mostly Cloudy,360,2013-06-16 14:51:00
9:51 AM,86.0,43.0,22,29.83,10.0,NNE,12.7,-,N/A,,Mostly Cloudy,20,2013-06-16 15:51:00
10:51 AM,88.0,43.0,21,29.83,10.0,North,11.5,-,N/A,,Mostly Cloudy,360,2013-06-16 16:51:00
11:51 AM,91.0,44.1,20,29.83,10.0,Variable,5.8,-,N/A,,Mostly Cloudy,0,2013-06-16 17:51:00
12:51 PM,95.0,44.1,17,29.80,10.0,NE,5.8,-,N/A,,Mostly Cloudy,40,2013-06-16 18:51:00
1:51 PM,95.0,44.1,17,29.78,10.0,Calm,Calm,-,N/A,,Mostly Cloudy,0,2013-06-16 19:51:00
2:51 PM,97.0,44.1,16,29.75,10.0,Calm,Calm,-,N/A,,Mostly Cloudy,0,2013-06-16 20:51:00
3:51 PM,96.1,44.1,17,29.73,10.0,Variable,4.6,-,N/A,,Mostly Cloudy,0,2013-06-16 21:51:00
4:51 PM,99.0,44.1,15,29.71,10.0,WSW,4.6,-,N/A,,Scattered Clouds,240,2013-06-16 22:51:00
5:51 PM,100.0,43.0,14,29.69,10.0,West,8.1,-,N/A,,Scattered Clouds,280,2013-06-16 23:51:00
6:51 PM,99.0,44.1,15,29.68,10.0,SSW,6.9,-,N/A,,Scattered Clouds,210,2013-06-17 00:51:00
7:51 PM,93.9,44.1,18,29.70,10.0,SSW,13.8,-,N/A,,Scattered Clouds,210,2013-06-17 01:51:00
8:51 PM,93.0,48.0,21,29.71,10.0,WSW,18.4,-,0.00,Thunderstorm,Thunderstorm,250,2013-06-17 02:51:00
9:05 PM,89.6,48.2,24,29.97,10.0,WSW,21.9,31.1,N/A,Thunderstorm,Thunderstorm,240,2013-06-17 03:05:00
9:41 PM,89.6,50.0,26,30.01,10.0,NW,6.9,-,N/A,,Mostly Cloudy,320,2013-06-17 03:41:00
9:51 PM,89.1,48.9,25,29.76,10.0,Calm,Calm,-,N/A,,Mostly Cloudy,0,2013-06-17 03:51:00
10:51 PM,88.0,48.9,26,29.75,10.0,SSW,6.9,-,N/A,,Mostly Cloudy,210,2013-06-17 04:51:00
11:51 PM,88.0,46.9,24,29.76,10.0,NNW,6.9,-,0.00,,Mostly Cloudy,330,2013-06-17 05:51:00